Zurück zum Katalog

USA 550

AktivMilitärSSO
NORAD 65076·PAYLOAD·🇺🇸 United States

Gestartet Jul 31, 2025 von Vandenberg Space Force Base

Loading…

Nächste Überflüge (nächste 24 Stunden)

TLE

VeraltetSource: Mike McCants

Epoche: Aug 15, 2026, 22:53 UTC

1 65076U 25165W   26227.95376237 0.00000000  00000-0  00000-0 0    07
2 65076  97.6043 320.9674 0000604 287.5402  72.4596 15.40353194    02

Verfolge USA 550 in Echtzeit mit AllMySat

Download on the App Store